Location: Fernhill
(41.0167°S, 175.6333°E)
Time: 10:10:06
(UTC+00:00)

Cosmos 1833 Rocket - Pass Details

Date: 21 February 2026
Orbit: 832 x 838 km, 71.0° (Epoch: 7 March)

Event Time Altitude Azimuth Distance (km) Brightness Sun altitude
Exits shadow 12:05:52 25° 156° (SSE) 1,659 4.6 -38.2°
Drops below altitude 10° 12:08:05 10° 156° (SSE) 2,477 5.7 -38.3°
Sets 12:10:33 0° 156° (SSE) 3,419 6.6 -38.3°
